[[{"header":{"parameterUnit":"m.s-1","parameterCategory":1,"la1":30.2991,"la2":30.254,"lo1":-89.0895,"lo2":-89.0444,"dy":0.0017,"dx":0.0017,"nx":28,"ny":28,"refTime":"2025-04-01T21:00:00:Z","depth":0,"parameterNumber":2,"parameterNumberName":"U-component_of_WINDS"},"data":[0,0,0,0,0,0,0,0,0,0,0,0,0,0,0,0,0,0,0,0,0,0,0,0,0,0,0,0,0,0,0,0,0,0,0,0,0,0,0,0,0,0,0,0,0,0,0,0,0,0,0,0,0,0,0,0,0,0,-3.9801,-3.9803,0,-3.9947,-3.9949,-3.995,-3.9985,-3.9984,-3.9983,-3.9982,-4.0131,-4.0136,-4.0141,0,0,0,0,0,0,0,0,0,0,0,0,0,-3.9554,-3.9558,-3.9801,-3.9803,-3.9805,-3.9947,-3.9949,-3.9951,-3.9985,-3.9984,-3.9982,-3.9981,-4.013,-4.0135,-4.0141,0,0,0,0,0,0,0,0,0,0,0,0,0,-3.9676,-3.9559,-3.9801,-3.9839,-3.9844,-3.9946,-3.9949,-3.9951,-3.9985,-3.9984,-3.9982,-3.9981,-4.0128,-4.0135,-4.0142,-4.0217,0,0,-4.0165,-4.0168,0,0,0,0,0,0,0,0,-3.9669,-3.9685,-3.9831,-3.9836,-3.9842,-3.9946,-3.9916,-4.004,-3.9985,-3.9931,-3.9982,-3.998,-4.0071,-4.0083,-4.0113,-4.0224,-4.0231,-4.0165,-4.017,-4.0173,-4.0175,0,0,0,0,0,0,0,-3.9661,-3.9679,-3.9859,-3.9834,-3.984,-3.9849,-3.9865,-3.994,-4.0008,-3.9936,-3.9939,-3.9956,-4.0073,-4.0106,-4.0117,-4.0233,-4.0165,-4.0172,-4.0176,-4.0179,-4.0413,-4.0415,0,0,0,0,0,0,-3.9646,-3.9672,-3.9854,-3.9863,-3.975,-3.9855,-3.9872,-3.9914,-4.0007,-4.002,-3.9957,-3.9957,-4.0094,-4.0108,-4.0122,-4.0216,-4.0173,-4.018,-4.0184,-4.0412,-4.0414,-4.0416,0,0,0,0,0,0,-3.964,-3.9662,-3.9848,-3.9769,-3.9793,-3.9861,-3.9907,-3.9918,-3.9951,-4.0023,-4.0035,-3.9978,-4.0094,-4.0112,-4.0194,-4.0222,-4.0183,-4.019,-4.041,-4.0412,-4.0415,-4.0404,0,0,0,0,0,0,-3.9633,-3.9659,-3.9688,-3.9769,-3.9797,-3.9916,-3.9909,-3.9922,-3.9963,-3.9964,-4.0045,-4.0057,-4.0094,-4.0182,-4.0201,-4.0231,-4.0195,-4.0407,-4.0411,-4.0414,-4.0403,-4.0407,-4.041,0,0,0,0,0,-3.9624,-3.9679,-3.9689,-3.9711,-3.9834,-3.9918,-3.9934,-3.9975,-3.9965,-3.9995,-4.0042,-4.0055,-4.0216,-4.019,-4.0211,-4.0245,-4.0406,-4.041,-4.0414,-4.0401,-4.0406,-4.041,0,0,0,0,0,0,-3.96,-3.969,-3.9702,-3.9786,-3.9844,-3.9923,-3.9962,-3.9979,-4.0041,-4.0039,-4.0088,-4.0106,-4.0184,-4.0223,-4.0192,-4.0323,-4.0311,-4.0319,-4.0294,-4.0299,-4.0303,-4.0291,-4.0201,0,0,0,0,0,-3.9604,-3.9664,-3.974,-3.9806,-3.9835,-3.9893,-3.9931,-3.9958,-4.002,-4.0045,-4.0097,-4.0157,-4.0222,-4.0263,-4.0326,-4.0409,-4.0427,-4.0443,-4.0446,-4.0449,-4.0455,-4.0502,-4.051,-4.0429,-4.0429,-4.0429,0,0,-3.9613,-3.967,-3.9705,-3.9803,-3.9851,-3.9912,-3.9914,-3.9978,-4.0024,-4.0055,-4.0134,-4.0175,-4.0246,-4.0328,-4.0367,-4.0363,-4.0482,-4.0454,-4.0456,-4.0461,-4.0507,-4.0515,-4.0522,-4.0432,-4.0432,-4.0431,0,0,-3.9661,-3.9711,-3.9771,-3.982,-3.9893,-3.9932,-3.9946,-4.0024,-4.0052,-4.0133,-4.0158,-4.0214,-4.0324,-4.0373,-4.0412,-4.0481,-4.0496,-4.0501,-4.0519,-4.0564,-4.0571,-4.0577,-4.06,-4.0608,-4.0507,-4.0507,-4.0507,0,-3.9663,-3.9756,-3.98,-3.9864,-3.9906,-3.9937,-3.9999,-4.0044,-4.0134,-4.0163,-4.0157,-4.0297,-4.0346,-4.0441,-4.0458,-4.0489,-4.0507,-4.049,-4.0566,-4.0573,-4.0579,-4.0602,-4.0611,-4.0507,-4.0507,-4.0507,-4.0507,0,-3.9755,-3.9819,-3.9859,-3.9945,-3.9993,-4.0055,-4.0109,-4.0152,-4.0175,-4.0215,-4.0297,-4.0358,-4.0435,-4.046,-4.0483,-4.0558,-4.0553,-4.0557,-4.0545,-4.0586,-4.0608,-4.0618,-4.0507,-4.0507,-4.0507,-4.0507,0,0,-3.9789,-3.99,-3.9914,-3.9954,-4.0038,-4.0088,-4.0153,-4.0228,-4.0263,-4.0325,-4.038,-4.0474,-4.0478,-4.0522,-4.0552,-4.0592,-4.0642,-4.0591,-4.0593,-4.0597,-4.0728,-4.0724,-4.0733,-4.0654,-4.0655,-4.0657,-4.0722,0,-3.9846,-3.9961,-4.0004,-4.0098,-4.0158,-4.019,-4.0247,-4.0304,-4.0344,-4.0401,-4.0445,-4.051,-4.0511,-4.0538,-4.058,-4.0627,-4.0669,-4.0623,-4.0705,-4.0707,-4.0684,-4.0746,-4.0741,-4.0799,-4.0731,-4.0733,-4.0734,0,-3.9928,-3.9991,-4.0091,-4.0169,-4.0195,-4.0245,-4.0317,-4.0372,-4.0439,-4.0465,-4.0516,-4.0543,-4.0612,-4.0599,-4.0695,-4.0663,-4.0699,-4.0728,-4.0731,-4.0739,-4.0721,-4.0753,-4.0819,-4.0827,-4.0749,-4.0747,-4.0746,0,-3.9941,-4.0051,-4.0126,-4.0159,-4.0251,-4.0286,-4.0326,-4.0391,-4.0434,-4.0498,-4.0526,-4.0597,-4.0636,-4.0691,-4.0737,-4.0723,-4.0829,-4.0819,-4.0852,-4.0851,-4.0871,-4.0869,-4.0942,-4.0898,-4.0897,-4.0897,-4.0897,0,-4.0,-4.006,-4.0133,-4.0178,-4.0247,-4.0296,-4.0363,-4.0405,-4.0464,-4.0518,-4.0551,-4.0602,-4.0661,-4.072,-4.0757,-4.0831,-4.0848,-4.0871,-4.088,-4.0867,-4.0864,-4.089,-4.0887,-4.09,-4.0899,-4.0899,-4.0898,0,-4.0025,-4.0077,-4.016,-4.0241,-4.0263,-4.031,-4.038,-4.0426,-4.0467,-4.0536,-4.0556,-4.0621,-4.0692,-4.0744,-4.0836,-4.0861,-4.094,-4.095,-4.0917,-4.0921,-4.0951,-4.0947,-4.1042,-4.1057,-4.1003,-4.1004,-4.1004,0,-4.0058,-4.0105,-4.0191,-4.023,-4.027,-4.0333,-4.0377,-4.0427,-4.0472,-4.0553,-4.0589,-4.0662,-4.0723,-4.0836,-4.0892,-4.0962,-4.0973,-4.1002,-4.0984,-4.097,-4.0972,-4.0968,-4.0973,-4.1003,-4.1004,-4.1004,-4.1004,0,-4.0111,-4.0134,-4.0196,-4.0267,-4.0318,-4.0377,-4.0436,-4.0466,-4.0528,-4.0576,-4.0649,-4.0696,-4.0791,-4.0863,-4.094,-4.0982,-4.1003,-4.101,-4.1021,-4.1008,-4.0986,-4.0997,-4.0922,-4.1007,-4.1007,-4.1006,-4.1006,-4.1006,-4.014,-4.0184,-4.0251,-4.0319,-4.0369,-4.0424,-4.0471,-4.0519,-4.0581,-4.0661,-4.0688,-4.0763,-4.083,-4.0936,-4.0979,-4.1039,-4.1038,-4.1055,-4.1059,-4.1062,-4.106,-4.0978,-4.1053,-4.1053,-4.1054,-4.1054,-4.1054,0,-4.0194,-4.0239,-4.0301,-4.0383,-4.0436,-4.0453,-4.0519,-4.0563,-4.0629,-4.069,-4.075,-4.0834,-4.0905,-4.0967,-4.1041,-4.1077,-4.1089,-4.1095,-4.1092,-4.1101,-4.1057,-4.1039,-4.1084,-4.1084,-4.1084,-4.1084,-4.1084,-4.1084,-4.0228,-4.0301,-4.0333,-4.0433,-4.0478,-4.0552,-4.0589,-4.064,-4.0689,-4.0781,-4.084,-4.088,-4.0942,-4.1021,-4.1087,-4.1104,-4.1129,-4.1132,-4.1151,-4.1108,-4.1104,-4.1101,-4.1084,-4.1138,-4.1138,-4.119,-4.1191,-4.1191]},{"header":{"parameterUnit":"m.s-1","parameterCategory":1,"la1":30.2991,"la2":30.254,"lo1":-89.0895,"lo2":-89.0444,"dy":0.0017,"dx":0.0017,"nx":28,"ny":28,"refTime":"2025-04-01T21:00:00:Z","depth":0,"parameterNumber":3,"parameterNumberName":"V-component_of_WINDS"},"data":[0,0,0,0,0,0,0,0,0,0,0,0,0,0,0,0,0,0,0,0,0,0,0,0,0,0,0,0,0,0,0,0,0,0,0,0,0,0,0,0,0,0,0,0,0,0,0,0,0,0,0,0,0,0,0,0,0,0,5.6533,5.6533,0,5.6574,5.6575,5.6575,5.6541,5.654,5.6538,5.6537,5.6576,5.6579,5.6581,0,0,0,0,0,0,0,0,0,0,0,0,0,5.6423,5.6426,5.6533,5.6533,5.6534,5.6574,5.6575,5.6575,5.6541,5.654,5.6538,5.6536,5.6576,5.6578,5.6581,0,0,0,0,0,0,0,0,0,0,0,0,0,5.6468,5.6426,5.6533,5.6522,5.6521,5.6574,5.6575,5.6575,5.6542,5.654,5.6538,5.6536,5.6575,5.6578,5.6582,5.6646,0,0,5.6592,5.6594,0,0,0,0,0,0,0,0,5.6466,5.6472,5.6523,5.6523,5.6522,5.655,5.6551,5.6599,5.6542,5.6534,5.6537,5.6534,5.6569,5.6573,5.6585,5.6648,5.665,5.6593,5.6595,5.6596,5.6597,0,0,0,0,0,0,0,5.6463,5.647,5.6549,5.6524,5.6523,5.6515,5.6519,5.656,5.6563,5.6535,5.6532,5.6538,5.6569,5.6582,5.6586,5.665,5.6593,5.6596,5.6598,5.6599,5.6771,5.6773,0,0,0,0,0,0,5.6461,5.6468,5.6548,5.655,5.6488,5.6518,5.6523,5.6544,5.6562,5.6563,5.6539,5.6536,5.6577,5.6582,5.6587,5.6666,5.6596,5.66,5.6602,5.6769,5.6772,5.6774,0,0,0,0,0,0,5.6459,5.6469,5.6546,5.6509,5.6518,5.6523,5.6546,5.6545,5.6559,5.6566,5.6566,5.6553,5.6576,5.6582,5.6633,5.6667,5.6601,5.6605,5.6766,5.677,5.6773,5.6824,0,0,0,0,0,0,5.6456,5.6468,5.6493,5.651,5.652,5.6591,5.6548,5.6548,5.6566,5.6561,5.6579,5.658,5.6574,5.6628,5.6636,5.6671,5.6607,5.6763,5.6767,5.6772,5.6819,5.6829,5.6837,0,0,0,0,0,5.6452,5.6504,5.6494,5.6504,5.6551,5.6593,5.6599,5.6593,5.6568,5.6593,5.6599,5.6579,5.6662,5.6633,5.6642,5.6679,5.676,5.6766,5.6771,5.6815,5.6827,5.6837,0,0,0,0,0,0,5.6489,5.6506,5.6495,5.6554,5.6573,5.6588,5.6619,5.6605,5.6631,5.6625,5.6616,5.662,5.6674,5.6681,5.6649,5.6744,5.6707,5.6715,5.6737,5.6748,5.6757,5.6755,5.661,0,0,0,0,0,5.6504,5.6538,5.655,5.6601,5.6611,5.6614,5.6632,5.6626,5.6644,5.6652,5.666,5.6678,5.6709,5.6729,5.6757,5.682,5.6824,5.685,5.6859,5.6866,5.6873,5.6909,5.6921,5.6792,5.6792,5.6792,0,0,5.6536,5.6549,5.657,5.6609,5.6623,5.6658,5.662,5.6658,5.6684,5.6657,5.6706,5.6713,5.6733,5.6791,5.6816,5.6798,5.691,5.6873,5.6879,5.6882,5.6916,5.6928,5.6939,5.6796,5.6795,5.6795,0,0,5.6611,5.6624,5.6669,5.6685,5.6707,5.6709,5.672,5.6737,5.6742,5.6791,5.6772,5.6802,5.6854,5.687,5.6885,5.697,5.6953,5.6979,5.7026,5.7061,5.7072,5.7081,5.7113,5.7124,5.6986,5.6986,5.6986,0,5.6647,5.67,5.6694,5.6734,5.6753,5.6732,5.6778,5.6792,5.6822,5.6835,5.6815,5.6882,5.6893,5.6956,5.6977,5.6989,5.7002,5.6977,5.7071,5.708,5.7088,5.7118,5.713,5.6989,5.6988,5.6988,5.6988,0,5.6744,5.6781,5.6815,5.6847,5.6868,5.6911,5.6912,5.6935,5.6928,5.6932,5.6983,5.6997,5.7029,5.7043,5.7035,5.7105,5.7094,5.7072,5.7035,5.7104,5.7132,5.7144,5.6993,5.6992,5.6991,5.699,0,0,5.6842,5.6873,5.6885,5.6901,5.6925,5.6953,5.6996,5.7029,5.705,5.7071,5.7107,5.7153,5.7135,5.7152,5.7145,5.7177,5.7246,5.7152,5.7152,5.717,5.7326,5.7343,5.7356,5.7235,5.7237,5.7239,5.7325,0,5.6921,5.6996,5.6994,5.7064,5.7099,5.7081,5.7118,5.7138,5.7143,5.7173,5.7178,5.7212,5.7184,5.7194,5.7224,5.7231,5.7277,5.7224,5.7269,5.7271,5.7266,5.7371,5.7389,5.7469,5.7336,5.7338,5.7339,0,5.7021,5.705,5.7124,5.7146,5.7161,5.7195,5.7226,5.7255,5.7277,5.7278,5.7299,5.7289,5.7332,5.7295,5.7355,5.732,5.7338,5.7344,5.7347,5.7352,5.731,5.738,5.7494,5.7507,5.7356,5.7355,5.7353,0,5.7089,5.7145,5.7197,5.7211,5.7237,5.7262,5.7273,5.7293,5.7314,5.7341,5.7355,5.7386,5.7403,5.7427,5.7426,5.7398,5.7489,5.745,5.7492,5.7492,5.7512,5.7511,5.7633,5.7522,5.7522,5.7521,5.7521,0,5.7177,5.7224,5.7228,5.7261,5.7314,5.731,5.7362,5.7371,5.7389,5.7423,5.7408,5.7441,5.7437,5.7469,5.7468,5.752,5.7527,5.753,5.753,5.7533,5.7533,5.7545,5.754,5.7525,5.7524,5.7523,5.7523,0,5.7261,5.7265,5.7322,5.7343,5.735,5.7388,5.7406,5.7437,5.7442,5.7486,5.7495,5.7503,5.7541,5.7542,5.7584,5.7584,5.7648,5.764,5.7641,5.764,5.7683,5.768,5.7818,5.7836,5.7712,5.7713,5.7714,0,5.7317,5.7354,5.738,5.7403,5.7417,5.7453,5.7475,5.7473,5.7496,5.7526,5.7554,5.759,5.762,5.7681,5.769,5.7723,5.7717,5.7764,5.7722,5.7725,5.772,5.7719,5.7723,5.7772,5.7773,5.7774,5.7775,0,5.7418,5.742,5.7453,5.7488,5.7515,5.7541,5.7566,5.7585,5.7586,5.7614,5.7653,5.7676,5.7722,5.7759,5.7792,5.7803,5.779,5.7788,5.78,5.7804,5.7804,5.7806,5.7665,5.7785,5.7784,5.7783,5.7783,5.7782,5.7492,5.7524,5.7549,5.7586,5.7605,5.763,5.7661,5.7671,5.7704,5.7742,5.7738,5.7783,5.7806,5.7849,5.7863,5.7898,5.7882,5.7899,5.7903,5.7908,5.7914,5.7798,5.7904,5.7903,5.7903,5.7903,5.7903,0,5.7594,5.7609,5.7644,5.7681,5.7711,5.7697,5.7724,5.775,5.779,5.7813,5.7843,5.789,5.7927,5.7939,5.7975,5.8001,5.7996,5.801,5.8009,5.8012,5.7925,5.7912,5.8014,5.8014,5.8014,5.8014,5.8014,5.8014,5.765,5.7705,5.771,5.7775,5.7789,5.7834,5.7851,5.7874,5.7893,5.7946,5.7977,5.7986,5.8005,5.8042,5.8076,5.8079,5.8093,5.8111,5.8111,5.8029,5.8018,5.8007,5.7995,5.8114,5.8114,5.8196,5.8197,5.8198]}]]